HST 1 20580U 90037B 25352.01685464 .00005688 00000+0 19368-3 0 9991 2 20580 28.4674 236.5696 0001951 306.2447 53.7967 15.28122533760807 POLAR 1 23802U 96013A 25340.48239671 .00000144 00000+0 00000+0 0 9995 2 23802 79.6240 229.2201 6278774 215.5988 78.9527 1.29846135142354 SWAS 1 25560U 98071A 25352.36927836 .00003708 00000+0 24702-3 0 9999 2 25560 69.8970 333.2959 0006322 209.4657 150.6150 15.07997854469999 CXO 1 25867U 99040B 25354.55178789 .00000629 00000+0 00000+0 0 9994 2 25867 53.1580 122.2771 8124204 310.8135 0.2560 0.37797284 16643 XMM-NEWTON 1 25989U 99066A 25352.84950202 .00000081 00000+0 00000+0 0 9997 2 25989 65.4033 285.3699 4740231 68.0474 0.2178 0.50133546 22108 TERRA 1 25994U 99068A 25352.63473225 .00000370 00000+0 84676-4 0 9994 2 25994 97.9741 44.1027 0003564 82.8541 32.5329 14.60908370383244 CLUSTER II-FM7 (SAMBA) 1 26410U 00041A 25354.59902070 .00003830 00000+0 00000+0 0 9991 2 26410 147.7214 25.8632 8768954 241.6495 359.9177 0.44843706 19518 CLUSTER II-FM8 (TANGO) 1 26464U 00045B 25353.27147540 .00003865 00000+0 00000+0 0 9999 2 26464 148.0011 26.3942 8772756 242.0245 359.7825 0.44421438 19500 ODIN 1 26702U 01007A 25352.51280726 .00025753 00000+0 43409-3 0 9997 2 26702 97.4209 20.6209 0005294 94.5369 265.6488 15.51650989361227 TIMED 1 26998U 01055B 25352.40022795 .00001217 00000+0 11575-3 0 9993 2 26998 74.0676 238.8840 0000773 212.2377 147.8760 14.94708776303800 CORIOLIS 1 27640U 03001A 25352.59157199 .00000119 00000+0 76437-4 0 9997 2 27640 98.7139 357.2342 0014318 17.3765 342.7898 14.19874565188592 SORCE 1 27651U 03004A 25352.62083466 .00002844 00000+0 22196-3 0 9990 2 27651 39.9894 210.9219 0016874 198.0022 162.0175 15.02328817244725 MOST 1 27843U 03031D 25352.57048369 .00000076 00000+0 54906-4 0 9990 2 27843 98.7065 357.8094 0010768 57.5825 302.6392 14.21271987165055 SCISAT 1 1 27858U 03036A 25352.56759301 .00000552 00000+0 75670-4 0 9995 2 27858 73.9284 170.1379 0008572 274.2791 85.7405 14.81127710204701 SWIFT 1 28485U 04047A 25352.59282668 .00034864 00000+0 56364-3 0 9996 2 28485 20.5527 120.5263 0004027 1.0777 358.9674 15.50951337158627 HINODE (SOLAR-B) 1 29479U 06041A 25352.55027199 .00000550 00000+0 10357-3 0 9995 2 29479 98.0644 6.3099 0018419 138.1357 222.1260 14.68311669 28361 SHIJIAN-6 02A (SJ-6 02A) 1 29505U 06046A 25352.60626641 .00007021 00000+0 38632-3 0 9999 2 29505 97.6615 27.3867 0004597 57.4120 302.7554 15.14367181 44915 SHIJIAN-6 02B (SJ-6 02B) 1 29506U 06046B 25352.62275910 .00002002 00000+0 16317-3 0 9991 2 29506 97.6887 18.1433 0013559 318.5757 41.4438 15.00557790 43659 FGRST (GLAST) 1 33053U 08029A 25352.37311082 .00003500 00000+0 13227-3 0 9990 2 33053 25.5838 18.8339 0008242 357.6700 2.3799 15.22637391968230 SDO 1 36395U 10005A 25352.26020594 -.00000079 00000+0 00000+0 0 9992 2 36395 34.2723 89.1032 0001068 154.7257 194.9364 1.00270082 58243 CRYOSAT 2 1 36508U 10013A 25352.64896196 .00000107 00000+0 25764-4 0 9998 2 36508 92.0257 233.6004 0002435 94.9708 265.1778 14.51904626831880 X-SAT 1 37389U 11015C 25352.58278505 -.00000073 00000+0 -13486-4 0 9992 2 37389 98.3306 333.4277 0014452 148.9834 211.2203 14.25130839761958 GCOM-W1 (SHIZUKU) 1 38337U 12025A 25352.59044017 .00000491 00000+0 11903-3 0 9991 2 38337 98.2222 290.7222 0001342 67.9871 105.3071 14.57133790722731 NUSTAR 1 38358U 12031A 25352.66667824 .00003063 00000+0 14622-3 0 9995 2 38358 6.0285 306.0632 0009611 300.7630 57.6427 15.06481266 1300 NEOSSAT 1 39089U 13009D 25352.50746284 .00000158 00000+0 69408-4 0 9999 2 39089 98.4073 171.8942 0012048 67.5013 292.7447 14.35733541670814 BRITE-AUSTRIA 1 39091U 13009F 25352.45605308 .00000174 00000+0 73945-4 0 9996 2 39091 98.3887 171.4291 0011219 62.9204 297.3126 14.36439107671102 IRIS 1 39197U 13033A 25352.52688406 .00001481 00000+0 17803-3 0 9990 2 39197 97.9393 187.2969 0024350 187.1490 172.9382 14.85302210673551 HISAKI (SPRINT-A) 1 39253U 13049A 25352.54047064 .00000106 00000+0 58230-4 0 9994 2 39253 29.7210 58.4116 0136960 352.3505 7.4985 13.55522083606894 CASSIOPE 1 39265U 13055A 25352.59444505 .00038155 -24002-6 50578-3 0 9997 2 39265 80.9207 283.9429 0339493 305.9509 51.0655 15.11973549640256 STSAT-3 1 39422U 13066G 25352.59049549 .00002920 00000+0 23048-3 0 9990 2 39422 97.6008 320.8373 0013113 294.3059 65.6795 15.01424527657095 SWARM B 1 39451U 13067A 25351.71023028 .00002957 00000+0 11017-3 0 9993 2 39451 87.7441 37.3525 0003127 82.9666 277.1938 15.27053080655532 SWARM A 1 39452U 13067B 25352.57814187 .00010600 00000+0 21214-3 0 9997 2 39452 87.3365 123.1134 0002239 92.1207 268.0309 15.46609452678291 SWARM C 1 39453U 13067C 25352.57805344 .00010585 00000+0 21184-3 0 9991 2 39453 87.3363 121.6983 0002242 92.8101 267.3414 15.46608157678255 BRITE-CA1 (TORONTO) 1 40020U 14033L 25352.28142180 .00001123 00000+0 17710-3 0 9995 2 40020 97.9497 119.8928 0080173 135.4847 225.2839 14.72227112615598 OCO 2 1 40059U 14035A 25352.55415812 .00000404 00000+0 99808-4 0 9994 2 40059 98.2223 291.4312 0001314 97.5153 262.6195 14.57054059609744 BRITE-PL2 (HEWELIUSZ) 1 40119U 14049B 25352.56195024 .00001685 00000+0 16466-3 0 9997 2 40119 97.8994 98.4559 0014008 353.8249 6.2796 14.93679934614477 MMS 1 1 40482U 15011A 25352.66667824 -.00000535 00000+0 00000+0 0 9990 2 40482 69.3191 351.4730 8498794 163.4514 246.0600 0.28358854 1300 MMS 2 1 40483U 15011B 25352.66667824 -.00000535 00000+0 00000+0 0 9991 2 40483 69.3165 351.4636 8500259 163.4680 246.0266 0.28358853 1308 MMS 3 1 40484U 15011C 25352.66667824 -.00000535 00000+0 00000+0 0 9992 2 40484 69.3213 351.4801 8500205 163.4638 246.0222 0.28358860 1301 MMS 4 1 40485U 15011D 25352.66667824 -.00000536 00000+0 00000+0 0 9994 2 40485 69.3208 351.4725 8501516 163.4507 246.0591 0.28358863 1304 ASTROSAT 1 40930U 15052A 25352.23515363 .00001715 00000+0 12875-3 0 9993 2 40930 5.9974 17.4393 0008430 328.7872 31.1755 14.82031698552939 DAMPE 1 41173U 15078A 25352.58962697 .00001642 00000+0 58791-4 0 9992 2 41173 97.4540 352.2604 0012444 5.2944 354.8425 15.30176560556920 PISAT 1 41784U 16059B 25352.47689688 .00000942 00000+0 16936-3 0 9990 2 41784 97.8157 355.7833 0030576 64.1219 296.3134 14.68509587493211 HXMT (HUIYAN) 1 42758U 17034A 25352.65369772 .00004875 00000+0 25622-3 0 9996 2 42758 43.0137 106.8081 0031130 82.2554 278.1827 15.16300438470236 FLYING LAPTOP 1 42831U 17042G 25352.60594625 .00003109 00000+0 25434-3 0 9999 2 42831 97.4237 150.9583 0014651 30.2506 329.9561 14.99950225459375 ZHANGHENG 1-01 (CSES-1) 1 43194U 18015C 25352.59502730 .00009252 00000+0 41814-3 0 9992 2 43194 97.6650 149.8742 0018343 185.0784 175.0268 15.21026452437194 SALSAT 1 46495U 20068K 25352.49730257 .00007375 00000+0 28596-3 0 9992 2 46495 97.8779 340.0804 0009392 206.2655 153.8107 15.26420702287769 IXPE 1 49954U 21121A 25352.66667824 .00009431 00000+0 53723-3 0 9999 2 49954 0.2289 241.2950 0007269 233.5275 53.1567 15.08039808 5787